Regional Weather Roundup
Issued by NWS Huntsville, AL

Home | Current Version | Previous Version | Text Only | Print | Product List | Glossary On
Versions: 1 2 3 4 5 6 7 8 9 10 11 12 13 14 15 16 17 18 19 20 21 22 23 24 25 26 27 28 29 30 31 32 33 34 35 36 37 38 39 40 41 42 43 44 45 46 47 48 49 50
000
ASUS44 KHUN 212110
RWRHUN

WEATHER ROUNDUP FOR THE TENNESSEE VALLEY
NATIONAL WEATHER SERVICE HUNTSVILLE AL
400 PM CDT THU AUG 21 2014

ALZ001>004-212200-
NORTHWEST ALABAMA

CITY           SKY/WX    TMP DP  RH WIND       PRES   REMARKS
SHOALS AIRPORT MOSUNNY   91  72  53 W8        30.09F HX  98
SHOALS TVA RES   N/A     91 N/A N/A MISG        N/A
$$

ALZ005>007-016-212200-
NORTH CENTRAL ALABAMA

CITY           SKY/WX    TMP DP  RH WIND       PRES   REMARKS
DECATUR AP     SUNNY     94  70  45 VRB5      30.09F HX 100
HUNTSVILLE AP  MOSUNNY   94  70  45 NW7       30.09F HX 100
MERIDIANVILLE  MOSUNNY   93  63  36 CALM      30.09F HX  94
VINEMONT AP    FAIR      93  70  46 NW5       30.13F HX  98
$$

ALZ008>010-212200-
NORTHEAST ALABAMA

CITY           SKY/WX    TMP DP  RH WIND       PRES   REMARKS
ALBERTVILLE    MOSUNNY   90  77  66 N3        30.11F HX 102
FORT PAYNE     MOSUNNY   90  66  45 CALM      30.10F HX  92
SCOTTSBORO AP  MOSUNNY   90  73  58 CALM      30.10S HX  98
SCOTTSBORO HCN   N/A     88 N/A N/A MISG        N/A
VALLEY HEAD      N/A     88 N/A N/A MISG        N/A
$$

TNZ076-096-097-212200-
SOUTHEASTERN MIDDLE TENNESSEE

CITY           SKY/WX    TMP DP  RH WIND       PRES   REMARKS
FAYETTEVILLE   MOSUNNY   90  68  48 CALM      30.10F HX  93
TULLAHOMA      SUNNY     91  68  46 W8        30.12F HX  95
WINCHESTER     SUNNY     90  72  55 CALM      30.11S HX  96
$$

...SURROUNDING SITES...

CITY           SKY/WX    TMP DP  RH WIND       PRES   REMARKS
ATLANTA        MOSUNNY   83  70  64 SW12      30.12S
ANNISTON       PTSUNNY   83  72  69 E9        30.10F
BIRMINGHAM     MOSUNNY   95  70  44 N8        30.10F HX 101
CHATTANOOGA    MOSUNNY   93  66  40 W9        30.09F HX  96
CORINTH        FAIR      91  72  52 VRB6      30.07S HX  98
DALTON         MOSUNNY   90  72  55 CALM      30.10S HX  96
GADSDEN        PTSUNNY   81  72  74 SE6       30.09F
GOLDEN TRNGL   PTSUNNY   99  72  41 NW7       30.07F HX 107
HALEYVILLE     FAIR      93  72  50 VRB6      30.13F HX 100
JACKSON TN     MOSUNNY   91  74  57 SW5       30.06F HX 100
LEWISBURG      FAIR      93  69  45 W3        30.09F HX  98
MEMPHIS        MOSUNNY   95  72  47 SW10      30.06F HX 103
MURFREESBORO   FAIR      93  67  42 VRB5      30.06F HX  96
NASHVILLE      PTSUNNY   92  69  47 SW9       30.06F HX  97
ROME           MOSUNNY   89  75  63 SE3       30.09F HX  99
SAVANNAH       SUNNY     91  75  59 SW10      30.08S HX 102
TUPELO         SUNNY     94  71  47 VRB3      30.07F HX 101
TUSCALOOSA     SUNNY     94  69  44 CALM      30.06F HX  99
$$

...GULF COAST WEATHER...

CITY           SKY/WX    TMP DP  RH WIND       PRES   REMARKS
GULFPORT       MOSUNNY   92  72  51 VRB6      30.07F HX  99
PASCAGOULA     SUNNY     91  74  57 S8        30.07F HX 100
MOBILE         MOSUNNY   90  75  61 SE9       30.08F HX 100
GULF SHORES    CLEAR     91  76  62 SW10      30.07F HX 102
PENSACOLA      MOSUNNY   91  76  61 SW13      30.06F HX 103
DESTIN         MOSUNNY   90  78  68 SW9       30.07F HX 104
PANAMA CITY    MOSUNNY   90  77  65 W13       30.06F HX 103
APPALACHICOLA  MOSUNNY   93  76  57 W13       30.05F HX 105
$$




USA.gov is the U.S. government's official web portal to all federal, state and local government web resources and services.